Location: Poprad
(49.0500°N, 20.3000°E)
Time: 17:50:02
(UTC+02:00)

ITUPSAT 1 - Pass Details

Date: 25 April 2024
Orbit: 694 x 707 km, 98.5° (Epoch: 20 May)

Event Time Altitude Azimuth Distance (km) Brightness Sun altitude
Rises 21:54:45 0° 24° (NNE) 3,086 ? -17.9°
Reaches altitude 10° 21:57:19 10° 36° (NE) 2,162 ? -18.2°
Maximum altitude 22:01:20 27° 94° (E) 1,326 ? -18.6°
Enters shadow 22:01:24 27° 96° (E) 1,326 ? -18.6°
